Showing default

GJZ 03, 62292

Orbit data source: Space-Track

GJZ 03, 62292 is a payload satellite owned by CASC (CN) in LEO that was launched on Thu, 12 Dec 2024 UTC via a CHANG ZHENG 2D/YZ-3 launch vehicle from the Jiuquan Satellite Launch Center, China (JSC). Payload-class satellites include a variety of spacecraft equipped with specific instruments for various scientific and technological missions. These include communications satellites like Starlink; space stations such as the ISS; scientific satellites like the Hubble; Earth observation satellites from companies like Planet Labs, Umbra, and HawkEye 360; GPS; miniature CubeSats for education and research; and military/defense satellites.

Loading next visibility...
Identifier
62292, 2024-238C
Orbit
LEO
Country
Flag of CNCN / PRC
Related business
Manufacturer
HITSAT
Mission
Operational Civil Communications
Bus & Motor
HARBFLAT, Unknown motor
Mass
~150 kg wet, ~150 kg dry
Launch date (UTC)
2024-12-12 (1 year ago)
Launch vehicle
CHANG ZHENG 2D/YZ-3
Launch site
Jiuquan Satellite Launch Center, China (JSC)
Object type
Payload
Rocket body
Debris
Shape & HBR
Box + 2 Pan, 1.5 m
Radar Cross Section
0.240 m², Large (>1 m²)

Expand to show TLE details & history
Last TLE update: 6 hours ago

TLE from 6 hours ago
0 GJZ 03
1 62292U 24238C   26126.24778353  .00000007  00000-0  13083-3 0  9991
2 62292  59.9152  37.9567 0014537 325.9142  34.0931 13.75200936 70123
Epoch: 2026-05-06T05:56Z
TLE epoch observation values (Epoch: 2026-05-06T05:56:48.496Z)
Latitude
-0.00005°
Longitude
84.6436°
Altitude
973.588 km
Speed
7.37 km/s
True Right ascension
02h 31m 49s
True Declination
0° 00' 00"
Sunlit
Object was in daylight at epoch
Visualization orbit readout
Latitude
Unknown
Longitude
Unknown
Altitude
Unknown
Speed
Unknown
Apparent Right ascension
Unknown
Apparent Declination
Unknown
Sunlit
N/A
Visualization observer readout
Local Sidereal Time
19:35:17
Azimuth
Unknown
Elevation
Unknown
Doppler factor
Unknown
Orbital elements
Apogee altitude
990.923 km
Perigee altitude
969.529 km
Semi-major axis
7,358.363 km
Eccentricity
0.00145
Inclination
59.9152°
RAAN
37.9567°
Arg. of periapsis
325.9142°
True anomaly
34.18662°
Mean anomaly
34.0931°
Eccentric anomaly
34.13984°
Mean motion
3.43852 °/min
Orbital period
104.7 mins
BSTAR
0.00013083
Loading maneuver chart data...
Computing Atmospheric mass density...
Loading historical data...
Loading historical data...
Loading historical data...
Loading historical data...
Loading historical data...
Loading historical data...
Loading historical data...
Other satellites on launch #238 in the year 2024 (2024-12-12 UTC)

Documentation

Showing up to 5 results
|